Location: Unspecified
(27.5000°S, 0.0000°E)
Time: 05:58:59
(UTC+00:00)

CZ-6A DEB - Visible Passes

Search period start: 05 April 2026 00:00
Search period end: 15 April 2026 00:00
Orbit: 783 x 807 km, 89.0° (Epoch: 28 March)

Date Brightness Start Highest point End Pass type
(mag) Time Alt. Az. Time Alt. Az. Time Alt. Az.
5 Apr ? 18:55:19 10° NW 18:59:09 20° W 19:03:02 10° SW visible
6 Apr ? 05:34:00 10° S 05:39:18 67° E 05:44:30 10° N visible
6 Apr ? 18:25:54 10° NNW 18:30:46 35° W 18:35:41 10° SSW visible
7 Apr ? 05:06:06 10° SSE 05:10:58 36° E 05:15:46 10° NNE visible
8 Apr ? 04:38:43 10° SE 04:42:34 20° E 04:46:22 10° NE visible
9 Apr ? 04:13:06 10° ESE 04:14:04 10° E 04:15:01 10° E visible
9 Apr ? 05:49:54 10° S 05:55:07 59° W 06:00:15 10° NNW visible
9 Apr ? 18:43:18 10° NW 18:46:48 17° W 18:50:19 10° SW visible
10 Apr ? 05:21:33 10° S 05:26:52 76° E 05:32:06 10° N visible
10 Apr ? 18:13:40 10° NNW 18:18:22 31° W 18:23:08 10° SSW visible
11 Apr ? 04:53:34 10° SSE 04:58:34 41° E 05:03:28 10° NNE visible
12 Apr ? 04:26:02 10° SE 04:30:09 23° E 04:34:13 10° NE visible
13 Apr ? 03:59:36 10° ESE 04:01:39 12° E 04:03:41 10° ENE visible
13 Apr ? 05:37:30 10° S 05:42:38 51° W 05:47:41 10° NNW visible
13 Apr ? 18:31:19 10° WNW 18:34:23 15° W 18:37:28 10° SW visible
14 Apr ? 05:09:04 10° S 05:14:23 86° E 05:19:37 10° N visible
14 Apr ? 18:01:25 10° NW 18:05:56 28° W 18:10:29 10° SSW visible
